sat.trackr.live / text

‹ back to catalog

HULIANWANG DIGUI-29

NORAD 63696 · 2025-086K

PAYLOAD ACTIVE UNKNOWN

§ Identity

Operator
Country
PRC
Launch date
2025-04-28
Launch site
WSC
Launch vehicle
Mass (kg)
RCS (m²)

External: N2YO · Heavens-Above · Gunter

§ Orbital elements

Epoch: 2026-05-25T04:39:25.860384Z

Period
108.73 min
Inclination
86.5015°
Eccentricity
0.0001529
Mean motion
13.24408795 rev/d
Perigee alt
1,166.8 km
Apogee alt
1,169.1 km
Semi-major
7,546.1 km
B*
1.3371e-4
RAAN
320.8043°
Arg perigee
80.5351°
Mean anomaly
279.5955°
Rev number
5,181

§ Raw data

HULIANWANG DIGUI-291 63696U 25086K   26145.19404931  .00000072  00000+0  13371-3 0  99962 63696  86.5015 320.8043 0001529  80.5351 279.5955 13.24408795 51816

JSON: /api/v1/satellites/63696 · /tle

For live sub-satellite position, see the globe view (requires WebGL).

§ Visibility from observer

Set your observer location to see the next 7 days of passes ≥ 10°. The values pass through the URL so the page stays shareable.

No JS? Fill the form by hand. The geolocation button needs JavaScript.